Location: Kouchibouguac National Park
(46.8081°N, 64.9088°W)
Time: 00:37:17
(UTC-03:00)

Daily predictions for brighter satellites

Satellite Brightness Start Highest point End
(mag) Time Altitude Azimuth Time Altitude Azimuth Time Altitude Azimuth
deb Chang Zheng 4 4.1 00:02:21 10° N 00:06:38 56° WNW 00:09:31 20° SW
Cosmos 1891 Rocket 4.4 00:03:12 10° N 00:09:18 88° W 00:12:33 29° S
Cosmos 1707 Rocket 3.8 00:07:37 10° NNW 00:12:04 66° W 00:13:54 34° SSW
ALOS 2 3.4 00:10:54 28° ESE 00:12:40 43° ENE 00:16:49 10° N
DELTA 2 DEB (DPAF) 4.5 00:11:06 32° SSW 00:12:58 56° W 00:17:22 10° NNW
CZ-2C R/B 3.5 00:12:52 28° SE 00:15:53 63° ENE 00:21:28 10° N
MINOTAUR R/B 4.4 00:24:05 77° NW 00:24:05 77° NW 00:26:51 10° NNE
Cosmos 1538 Rocket 4.2 00:19:21 10° NNW 00:24:43 67° ENE 00:27:16 31° SE
Cosmos 1455 4.0 00:22:50 10° NW 00:25:58 24° W 00:27:33 18° SW
Cosmos 1844 Rocket 2.9 00:24:43 34° SSE 00:26:49 52° ESE 00:32:14 10° NE
Cosmos 1464 Rocket 4.4 00:23:17 10° NNW 00:29:15 54° W 00:32:45 25° SSW
Cosmos 1666 Rocket 3.9 00:28:28 32° SSW 00:30:26 64° W 00:34:53 10° N
CZ-4C R/B 2.2 00:28:14 32° SSW 00:30:43 63° ESE 00:36:41 10° NE
Cosmos 1933 3.4 00:28:41 10° N 00:32:47 70° ENE 00:33:50 47° SSE
Cosmos 1862 Rocket 3.6 00:31:47 10° N 00:36:10 71° E 00:37:30 43° SSE
Cosmos 1869 4.4 00:33:07 10° NNW 00:36:45 35° W 00:37:55 29° SW
Cosmos 1634 Rocket 4.3 00:33:34 10° N 00:39:41 59° ENE 00:42:46 30° SE
Cosmos 1933 Rocket 3.6 00:38:43 44° SSE 00:39:51 62° E 00:44:10 10° NNE
In-Cosmos 22 Rocket 4.3 00:40:59 36° SSE 00:43:09 63° E 00:48:43 10° NNE
CZ-4B R/B 3.6 00:42:58 16° E 00:44:14 18° ENE 00:46:45 10° NNE
Cosmos 1633 Rocket 3.6 00:44:55 31° SW 00:46:42 51° WNW 00:50:58 10° N
Cosmos 1315 Rocket 3.2 00:46:28 42° ESE 00:47:00 45° E 00:50:47 10° NNE
SL-24 R/B - RUBIN 2 4.0 00:43:42 10° NW 00:49:13 65° WSW 00:50:52 41° S
Cosmos 1400 Rocket 2.8 00:49:33 49° SSW 00:50:38 83° WNW 00:54:48 10° N
Cosmos 773 Rocket 3.9 00:49:59 10° NNW 00:55:17 89° ENE 00:57:21 38° SSE
USA 234 4.2 00:50:12 10° NE 00:56:28 50° NNW 01:02:43 10° W
CZ-2C R/B 2.6 00:52:00 10° NNE 00:57:21 85° WNW 00:59:37 36° SSW
Cosmos 2084 Rocket 3.9 00:54:58 10° NW 00:58:30 38° WSW 00:58:30 38° WSW
Cosmos 1892 3.1 00:58:31 45° ESE 00:59:04 49° E 01:02:51 10° NNE
Cosmos 1782 4.5 00:57:12 10° NNE 01:00:37 25° ENE 01:02:04 21° ESE
Cosmos 292 Rocket 4.2 01:00:14 10° NNW 01:04:50 48° WSW 01:06:05 38° SSW
Tsikada Rocket 4.3 01:01:18 27° SSW 01:04:53 62° WNW 01:11:11 10° N
Cosmos 1703 Rocket 3.9 01:03:26 10° N 01:07:54 60° ENE 01:09:16 40° SE
Cosmos 2221 Rocket 4.3 01:04:16 10° N 01:08:32 44° ENE 01:10:02 32° ESE
Cosmos 1461 3.6 01:09:53 34° ESE 01:09:53 34° ESE 01:13:21 10° NE
Cosmos 1777 Rocket 3.9 01:08:27 40° S 01:10:21 77° ESE 01:15:36 10° NNE
Cosmos 1346 Rocket 3.1 01:08:03 10° N 01:11:53 54° ENE 01:12:43 44° ESE
Meteor 2-10 Rocket 4.0 01:07:25 10° NNW 01:12:39 54° W 01:14:46 34° SSW
Cosmos 1680 Rocket 3.7 01:09:55 10° NNW 01:15:12 65° ENE 01:17:42 31° SE
Cosmos 1470 Rocket 4.2 01:16:11 33° SW 01:17:45 48° WNW 01:22:05 10° N
Cosmos 1606 4.0 01:14:19 10° N 01:17:50 32° ENE 01:18:57 27° ESE
Cosmos 1833 Rocket 3.6 01:16:20 10° NNW 01:21:45 44° NE 01:26:05 15° ESE
Cosmos 2278 Rocket 2.3 01:20:09 38° S 01:22:09 59° ESE 01:27:43 10° NNE
Okean 1-7 3.4 01:17:53 10° N 01:22:11 57° ENE 01:23:29 39° SE
Genesis I 3.4 01:24:01 49° SE 01:24:06 49° ESE 01:27:55 10° NE
Cosmos 489 Rocket 4.5 01:21:50 31° SSW 01:25:05 85° WNW 01:31:30 10° NNE
Spot 2 4.2 01:21:58 10° NNE 01:26:46 82° WNW 01:28:14 44° SSW
Landsat 5 3.7 01:27:06 40° SE 01:28:24 61° ENE 01:32:27 10° N
Cosmos 1844 3.8 01:26:10 29° SW 01:29:06 71° WNW 01:34:43 10° NNE
Cosmos 1869 Rocket 3.6 01:32:05 47° SSE 01:33:09 66° E 01:37:27 10° NNE
Cosmos 192 4.3 01:31:00 10° NNW 01:35:59 82° ENE 01:37:56 38° SSE
Cosmos 1689 Rocket 2.3 01:36:01 64° E 01:36:07 64° ENE 01:39:14 10° N
CZ-4C R/B 2.9 01:36:15 62° W 01:36:15 62° W 01:39:28 10° NNW
SL-27 R/B 2.8 01:37:11 10° NNW 01:40:11 46° W 01:40:11 46° W
Cosmos 2297 4.4 01:43:40 31° SSE 01:45:39 42° ESE 01:50:57 10° NE
Cosmos 44 Rocket 3.8 01:46:40 37° SSE 01:47:40 43° ESE 01:52:11 10° NE
Cosmos 2279 Rocket 4.0 01:42:41 10° NNW 01:48:57 74° W 01:51:50 34° S
ALOS 2 4.2 01:48:17 20° WSW 01:49:11 21° W 01:52:32 10° NW
Cosmos 1408 2.9 01:49:41 48° SE 01:50:09 53° E 01:53:42 10° NNE
Cosmos 2082 Rocket 2.3 01:47:31 10° NNW 01:53:10 76° ENE 01:56:31 25° SE
Cosmos 1733 Rocket 4.2 01:54:08 26° SE 01:55:39 33° E 01:59:33 10° NNE
Cosmos 1825 2.4 01:56:06 50° SE 01:56:48 61° E 02:00:34 10° NNE
Abrixas 2.8 02:07:04 56° NNE 02:07:04 56° NNE 02:09:40 10° E
SAR-Lupe-2 4.3 02:07:46 38° WSW 02:07:56 38° W 02:11:20 10° NNW
Aureole 3 4.4 02:05:43 31° SW 02:08:07 54° W 02:12:40 10° N
Cosmos 1844 Rocket 4.2 02:06:20 11° WSW 02:10:59 29° NW 02:15:52 10° N
Meteor 1-10 Rocket 4.4 02:06:28 10° NNW 02:12:13 66° W 02:14:51 33° SSW
CZ-3B DEB 4.1 01:59:48 10° WNW 02:12:39 85° SW 02:24:37 10° SE
SL-16 R/B 4.4 02:08:49 10° ESE 02:13:52 27° ENE 02:18:58 10° N
ATLAS 3B R/B 3.3 02:10:50 28° S 02:14:27 48° ESE 02:21:17 10° NE
CZ-4B R/B 2.4 02:16:33 33° W 02:16:40 33° W 02:19:56 10° NNW
JB-3 4.4 02:12:48 10° N 02:17:01 77° WNW 02:18:17 44° SSW
CZ-4C R/B 3.8 02:14:40 10° W 02:19:41 33° NNW 02:25:24 10° NNE
Cosmos 1674 Rocket 3.9 02:18:56 10° N 02:23:21 61° ENE 02:25:29 29° SSE
CZ-2D R/B 4.4 02:22:37 10° NE 02:25:49 16° E 02:29:02 10° SE
COSMOS 2487 2.3 02:22:24 10° NNW 02:25:58 79° WSW 02:26:38 56° S
PSLV R/B 3.6 02:21:35 10° NNE 02:26:01 78° ESE 02:27:44 38° S
Cosmos 2298 Rocket 4.1 02:29:04 33° S 02:31:27 69° ESE 02:36:45 10° NNE
Cosmos 1862 3.3 02:31:31 44° SSW 02:32:45 84° W 02:36:50 10° N
H-2A R/B 2.8 02:28:28 10° N 02:32:58 66° WNW 02:34:42 35° SW
Cosmos 1607 3.9 02:32:15 28° SW 02:35:47 86° NW 02:42:08 10° NE
Cosmos 1782 4.0 02:33:28 10° NNW 02:36:57 28° W 02:37:43 26° WSW
Meteor 1-27 Rocket 3.9 02:32:37 10° NNW 02:38:32 67° W 02:41:39 29° S
Cosmos 1908 Rocket 4.5 02:36:33 23° SSE 02:38:48 41° E 02:43:01 10° NNE
SL-08 R/B 4.2 02:35:48 14° SE 02:39:45 48° ENE 02:44:20 10° N
Cosmos 2150 Rocket 4.1 02:39:29 31° S 02:42:12 76° ESE 02:47:39 10° NNE
Cosmos 1378 Rocket 4.1 02:38:51 10° N 02:43:07 54° ENE 02:45:50 21° SSE
Timation 2 Rocket 3.9 02:41:08 10° NNW 02:47:11 70° WSW 02:51:41 19° SSE
Cosmos 1461 4.4 02:46:19 15° W 02:48:53 29° NW 02:52:27 10° NNE
Cosmos 1340 2.9 02:45:29 10° NNW 02:49:11 53° W 02:50:08 40° SW
Cosmos 1092 Rocket 4.0 02:47:32 27° SSW 02:51:10 78° W 02:57:26 10° N
Cosmos 1606 4.4 02:50:32 10° NW 02:53:24 20° W 02:54:01 19° W
NPP 4.0 02:53:24 10° NNE 02:58:44 59° E 03:02:12 22° S
Cosmos 1937 Rocket 3.5 02:57:05 29° SSW 02:59:48 78° WNW 03:04:59 10° NNE
Cosmos 2026 Rocket 4.0 02:56:20 23° S 03:00:18 77° E 03:06:22 10° NNE
SeaSat 1 2.4 02:56:03 14° SSE 03:00:23 88° WSW 03:05:22 10° NNW
Cosmos 1943 Rocket 4.3 02:57:32 10° SE 03:00:58 17° E 03:04:24 10° ENE
Cosmos 1553 Rocket 4.5 02:55:23 10° N 03:01:44 62° ENE 03:08:04 10° SSE
Cosmos 1782 Rocket 4.5 02:59:09 19° SSE 03:02:01 43° E 03:06:16 10° NNE
BREEZE-M DEB 2.9 03:00:05 10° W 03:03:53 49° N 03:05:58 10° ENE
Cosmos 1833 Rocket 3.5 03:00:33 10° NW 03:05:33 33° WSW 03:07:44 25° SW
Cosmos 44 3.6 03:03:38 22° WSW 03:06:22 52° NW 03:10:44 10° NNE
Cosmos 2278 Rocket 3.8 03:01:59 11° WSW 03:06:38 27° NW 03:11:26 10° N
Cosmos 990 Rocket 4.0 03:07:48 26° SSW 03:10:43 74° WNW 03:15:56 10° NNE
USA 238 DEB 3.8 03:08:11 23° SSW 03:12:49 77° SE 03:19:51 10° NE
USA 238 3.8 03:08:18 23° SSW 03:12:55 76° SE 03:19:57 10° NE
Cosmos 2369 Rocket 3.2 03:10:13 16° SSE 03:14:09 37° ESE 03:19:19 10° NE
Cosmos 1898 Rocket 4.3 03:14:51 20° WSW 03:18:08 42° WNW 03:23:09 10° N
Cosmos 1437 2.7 03:18:35 10° N 03:21:50 84° ENE 03:23:37 24° SSE
Helios 1A Rocket 3.4 03:18:21 10° N 03:22:19 48° WNW 03:24:27 24° SW
Cosmos 1125 Rocket 4.0 03:24:05 18° S 03:27:55 55° ESE 03:33:05 10° NNE
Cosmos 1975 Rocket 3.0 03:24:05 10° N 03:28:26 89° WNW 03:31:54 16° S
GP-B 3.5 03:25:27 10° N 03:29:45 49° W 03:32:16 23° SSW
ARIANE 5 R/B 3.3 03:26:00 10° NNE 03:30:49 46° E 03:35:14 12° S
Meteor 1-18 Rocket 4.2 03:25:18 10° N 03:30:54 88° E 03:36:28 10° S
Cosmos 2344 4.1 03:26:13 16° S 03:32:09 51° ESE 03:40:19 10° NE
Okean 3 4.0 03:28:34 10° NNW 03:32:34 41° W 03:34:42 23° SSW
Cosmos 405 Rocket 3.4 03:29:00 10° N 03:32:56 56° ENE 03:36:45 10° SSE
Cosmos 1733 Rocket 4.5 03:31:14 17° WSW 03:33:29 25° WNW 03:37:08 10° NNW
Cosmos 1346 2.7 03:31:54 10° N 03:34:38 89° E 03:36:02 25° S
AQUA 3.8 03:31:17 10° NNE 03:36:04 80° WNW 03:39:26 20° SSW
Cosmos 1812 2.7 03:32:16 10° NNW 03:36:07 68° W 03:38:43 20° S
Cosmos 2082 Rocket 3.7 03:32:56 10° WNW 03:36:34 18° W 03:38:19 16° WSW
Cosmos 1428 Rocket 4.5 03:31:53 18° SSW 03:36:40 82° W 03:42:58 10° N
ADEOS Rocket 3.5 03:29:19 10° NNE 03:37:02 88° ESE 03:43:04 15° SSW
CBERS-1 4.1 03:34:43 10° N 03:39:51 69° WNW 03:43:36 19° SSW
Spot 4 Rocket 4.3 03:34:58 10° NNE 03:40:07 67° ESE 03:44:31 14° S
Resurs 1-4 Rocket 2.4 03:35:26 10° NNE 03:40:45 65° ESE 03:45:25 13° S
Cosmos 1633 3.5 03:37:54 13° SSE 03:40:55 43° E 03:44:23 10° NNE
Abrixas 2.0 03:39:06 10° WNW 03:41:49 69° SSW 03:44:32 10° ESE
Cosmos 1655 Rocket 4.1 03:38:49 18° SSW 03:43:36 67° W 03:49:50 10° N
IRS-1D 3.7 03:41:49 10° NNE 03:46:56 72° ESE 03:51:20 13° S
NOSS 3-3 (A) 4.5 03:39:36 10° NW 03:47:02 84° SW 03:55:01 10° SSE
NOSS 3-3 (C) 4.5 03:39:42 10° NW 03:47:09 85° SW 03:55:10 10° SE
Cosmos 1536 Rocket 4.4 03:46:45 10° N 03:51:09 52° ENE 03:55:31 10° SSE
NOSS 3-2 (A) 3.6 03:46:57 17° SSW 03:51:44 71° SE 03:58:24 10° NE
Cosmos 372 Rocket 4.1 03:48:41 15° S 03:52:58 73° ESE 03:58:08 10° NNE
NOSS 3-2 (C) 3.9 03:48:04 15° SSW 03:52:59 57° ESE 03:59:28 10° NE
BREEZE-M DEB (TANK) 2.8 03:55:26 20° SSW 03:57:01 44° SE 04:02:40 10° ENE
SL-16 R/B 2.6 03:50:54 10° S 03:57:03 63° WSW 04:03:17 10° NNW
Cosmos 158 Rocket 3.9 03:52:00 10° NNW 03:57:04 63° WSW 04:01:58 10° S
Cosmos 1269 Rocket 4.1 03:55:16 10° NNW 04:00:31 63° WSW 04:05:44 10° S
Meteor 1-25 Rocket 4.3 03:56:13 15° SSW 04:00:53 68° WNW 04:06:34 10° N
CENTAUR R/B 4.2 03:56:36 10° SSE 04:01:20 24° ESE 04:06:31 10° ENE
Cosmos 724 4.4 03:57:15 15° SW 04:02:28 89° NW 04:08:39 10° NE
IRS-1C 4.4 03:58:02 10° N 04:03:16 57° WNW 04:07:48 14° SW
Cosmos 1602 4.3 04:00:19 10° S 04:04:10 58° E 04:08:05 10° NNE
Cosmos 2266 Rocket 4.1 03:58:02 10° S 04:04:26 84° E 04:10:51 10° N
ATLAS 3B R/B 3.5 03:58:04 10° WSW 04:05:14 50° NW 04:12:07 10° NE
CZ-3B DEB 4.4 03:54:04 10° WNW 04:05:28 39° WSW 04:15:25 10° S
CZ-2D R/B 2.2 04:01:06 10° NNE 04:06:30 80° WNW 04:11:40 11° SSW
CBERS 1 LM4 rocket 4.4 04:01:48 10° NNE 04:06:47 78° WNW 04:11:11 12° SSW
Cosmos 2315 Rocket 4.3 04:02:45 10° N 04:09:05 73° E 04:15:19 10° SSE
S3M 4.4 04:04:38 10° NNW 04:10:30 46° W 04:16:17 10° SSW
GENESIS II 4.3 04:08:01 15° SSW 04:11:18 75° SE 04:15:20 10° NE
MOS 1 Rocket 3.8 04:07:16 10° NNE 04:12:39 71° ESE 04:17:45 10° S
CZ-2D R/B 4.2 04:09:50 10° NNE 04:14:12 57° E 04:18:34 10° S
UNK 4.4 04:12:06 11° SSW 04:16:21 39° W 04:20:45 10° NNW
Cosmos 1536 4.0 04:13:43 10° SSE 04:17:26 40° E 04:21:12 10° NNE
COSMOS 2455 3.1 04:13:51 10° SSW 04:19:42 67° ESE 04:25:41 10° NE
USA 234 4.4 04:14:42 10° E 04:20:54 47° NNE 04:27:07 10° NW
BREEZE-M R/B 3.6 04:15:33 10° WNW 04:21:43 41° SW 04:25:01 10° SSE
Okean 1 Rocket 4.2 04:20:57 10° SSE 04:25:10 43° E 04:29:23 10° NNE
Meteor 2-4 Rocket 3.9 04:21:26 10° N 04:27:06 76° ENE 04:32:35 10° SSE
ADEOS II 3.7 04:26:03 10° NNE 04:30:49 33° E 04:35:31 10° SSE
Lacrosse 4 Rocket 4.0 04:27:51 10° NNW 04:31:49 29° NE 04:35:46 10° ESE
Okean 2 Rocket 4.1 04:30:15 10° SW 04:34:06 31° WNW 04:38:03 10° N
Gbstr 26 Del rocket 2.9 04:32:26 10° SW 04:36:02 55° SSE 04:39:48 10° ENE
Cosmos 1441 Rocket 3.7 04:32:35 10° NNW 04:36:25 45° W 04:40:14 10° SSW
SeaSat 1 4.2 04:36:11 10° SW 04:38:32 13° WSW 04:40:54 10° WNW
GRACE-1 4.4 04:36:04 10° SSW 04:38:38 39° W 04:41:13 10° NNW
GRACE-2 4.4 04:36:30 10° SSW 04:39:04 39° W 04:41:39 10° NNW
Cosmos 1300 Rocket 3.7 04:34:58 10° S 04:39:25 85° E 04:43:54 10° N
Cosmos 1943 Rocket 2.3 04:38:20 10° SSW 04:44:00 81° WNW 04:49:39 10° NNE
Meteor 1-23 Rocket 4.5 04:39:22 10° N 04:45:14 81° E 04:51:00 10° SSE
Meteor 1-13 Rocket 4.5 04:43:16 10° NNW 04:48:36 51° W 04:53:58 10° SSW
